{"data":{"norad_id":45939,"epoch":"2026-09-20T03:57:54.765216Z","epoch_age_seconds":99346,"freshness":"FRESH","line1":"1 45939U 20051A   26263.16521719  .00002706  00000+0  12461-3 0  9990","line2":"2 45939  97.5289 330.2063 0006932  42.6647 317.5125 15.21154034341781","mean_motion":15.21154034,"eccentricity":0.0006932,"inclination_deg":97.5289,"raan_deg":330.2063,"arg_perigee_deg":42.6647,"mean_anomaly_deg":317.5125,"bstar":0.00012461,"rev_number":34178,"period_min":94.664969346556,"perigee_km":497.58889583989,"apogee_km":507.1280147391,"semimajor_km":6880.4954552895,"source":"CELESTRAK","updated_at":"2026-09-20T09:00:14.716645Z"}}